SLT1680 UZNU-UUDD

Flight info

Callsign SLT1680
Flight time N/A
Altitude 35000
Route MAKIX2G MAKIX L985 AKALI/K0856F340 L985 LATNU M161 GERLI/K0865F360 M161 LEDGI M166 ARISA L736 OLOPI OLOPI3N
Aircraft B739/M-SDE2E3FGHIRWXY/LB1

Departure

Time N/A
Airport UZNU

Arrival

Time 2026-05-04 13:35
Airport Domodedovo International Airport (UUDD)
Time Latitude Longitude Altitude Speed Heading
2026-05-04 09:21 41.58625 60.63376 327 ft 0 kts 318°
2026-05-04 10:16 41.58655 60.63441 327 ft 4 kts 134°
2026-05-04 10:16 41.58634 60.63468 325 ft 4 kts 136°
2026-05-04 10:16 41.58619 60.63503 326 ft 4 kts 100°
2026-05-04 10:16 41.58629 60.63542 327 ft 4 kts 56°
2026-05-04 10:17 41.58651 60.63576 327 ft 5 kts 50°
2026-05-04 10:17 41.58678 60.63620 325 ft 8 kts 50°
2026-05-04 10:19 41.58986 60.63535 327 ft 10 kts 319°
2026-05-04 10:19 41.59040 60.63474 326 ft 10 kts 319°
2026-05-04 10:19 41.59092 60.63415 324 ft 10 kts 320°
2026-05-04 10:19 41.59143 60.63357 325 ft 9 kts 319°
2026-05-04 10:20 41.59187 60.63307 323 ft 5 kts 320°
2026-05-04 10:20 41.59215 60.63284 326 ft 5 kts 338°
2026-05-04 10:20 41.59248 60.63278 324 ft 5 kts 355°
2026-05-04 10:20 41.59277 60.63262 323 ft 5 kts 327°
2026-05-04 10:21 41.59289 60.63225 326 ft 5 kts 261°
2026-05-04 10:21 41.59263 60.63214 324 ft 5 kts 153°
2026-05-04 10:21 41.59240 60.63244 325 ft 5 kts 136°
2026-05-04 10:21 41.59235 60.63250 326 ft 0 kts 138°
2026-05-04 10:22 41.58874 60.63662 328 ft 98 kts 140°
2026-05-04 10:22 41.58195 60.64435 326 ft 155 kts 139°
2026-05-04 10:22 41.57297 60.65464 656 ft 176 kts 139°
2026-05-04 10:23 41.56304 60.66550 1155 ft 193 kts 140°
2026-05-04 10:23 41.55262 60.67756 1818 ft 202 kts 138°
2026-05-04 10:25 41.53155 60.80030 5932 ft 254 kts 48°
2026-05-04 10:25 41.54414 60.81709 6615 ft 259 kts 33°
2026-05-04 10:25 41.56085 60.82553 7324 ft 260 kts
2026-05-04 10:25 41.57903 60.82584 8024 ft 263 kts 358°
2026-05-04 10:26 41.59753 60.82453 8648 ft 268 kts 357°
2026-05-04 10:26 41.61631 60.82297 9321 ft 271 kts 357°
2026-05-04 10:26 41.63518 60.82140 10022 ft 273 kts 357°
2026-05-04 10:26 41.65429 60.81987 10596 ft 281 kts 357°
2026-05-04 10:27 41.67453 60.81831 10787 ft 303 kts 357°
2026-05-04 10:27 41.69630 60.81667 10960 ft 324 kts 357°
2026-05-04 10:27 41.71949 60.81497 11124 ft 344 kts 357°
2026-05-04 10:27 41.74403 60.81320 11271 ft 362 kts 357°
2026-05-04 10:28 41.76982 60.81136 11391 ft 380 kts 357°
2026-05-04 10:28 41.78757 60.81011 11497 ft 390 kts 357°
2026-05-04 10:28 41.81493 60.80817 11867 ft 397 kts 357°
2026-05-04 10:28 41.84263 60.80622 12396 ft 399 kts 356°
2026-05-04 10:29 41.87044 60.80432 12874 ft 400 kts 358°
2026-05-04 10:29 41.89837 60.80255 13210 ft 405 kts 357°
2026-05-04 10:29 41.92659 60.80029 13737 ft 406 kts 356°
2026-05-04 10:29 41.95488 60.79819 14235 ft 409 kts 357°
2026-05-04 10:30 41.98340 60.79621 14703 ft 412 kts 357°
2026-05-04 10:30 42.01209 60.79420 15153 ft 414 kts 357°
2026-05-04 10:30 42.04097 60.79220 15586 ft 417 kts 357°
2026-05-04 10:30 42.07008 60.79013 16016 ft 421 kts 356°
2026-05-04 10:31 42.09937 60.78830 16474 ft 423 kts 359°
2026-05-04 10:31 42.12870 60.79217 16888 ft 425 kts 10°
2026-05-04 10:32 42.30577 60.84104 19060 ft 440 kts 11°
2026-05-04 10:33 42.33594 60.84889 19449 ft 442 kts 10°
2026-05-04 10:33 42.36619 60.85671 19816 ft 444 kts 10°
2026-05-04 10:33 42.39622 60.86448 20156 ft 446 kts 10°
2026-05-04 10:33 42.42682 60.87241 20503 ft 448 kts 10°
2026-05-04 10:34 42.45795 60.88047 20826 ft 451 kts 10°
2026-05-04 10:34 42.48843 60.88838 21139 ft 453 kts 10°
2026-05-04 10:34 42.51946 60.89645 21470 ft 455 kts 10°
2026-05-04 10:34 42.55063 60.90457 21798 ft 457 kts 10°
2026-05-04 10:35 42.58188 60.91274 22097 ft 459 kts 10°
2026-05-04 10:35 42.61332 60.92096 22383 ft 461 kts 10°
2026-05-04 10:35 42.64488 60.92921 22675 ft 463 kts 10°
2026-05-04 10:35 42.67659 60.93749 22955 ft 465 kts 10°
2026-05-04 10:36 42.70843 60.94582 23243 ft 467 kts 10°
2026-05-04 10:36 42.74036 60.95419 23509 ft 468 kts 10°
2026-05-04 10:36 42.77243 60.96257 23757 ft 470 kts 10°
2026-05-04 10:36 42.80467 60.97091 24003 ft 473 kts 10°
2026-05-04 10:37 42.83701 60.97924 24265 ft 474 kts 10°
2026-05-04 10:37 42.86950 60.98761 24530 ft 476 kts 10°
2026-05-04 10:37 42.90211 60.99603 24784 ft 478 kts 10°
2026-05-04 10:37 42.93480 61.00449 25050 ft 479 kts 10°
2026-05-04 10:39 43.13233 61.05607 26881 ft 479 kts 10°
2026-05-04 10:39 43.16464 61.06462 27203 ft 480 kts 10°
2026-05-04 10:39 43.19738 61.07330 27570 ft 478 kts 10°
2026-05-04 10:40 43.23046 61.08203 27923 ft 478 kts 10°
2026-05-04 10:40 43.26267 61.09055 28278 ft 477 kts 10°
2026-05-04 10:40 43.29515 61.09917 28657 ft 476 kts 10°
2026-05-04 10:40 43.32764 61.10781 29030 ft 475 kts 10°
2026-05-04 10:41 43.36003 61.11643 29399 ft 474 kts 10°
2026-05-04 10:41 43.39234 61.12504 29745 ft 473 kts 10°
2026-05-04 10:41 43.42468 61.13366 30082 ft 473 kts 10°
2026-05-04 10:41 43.45690 61.14226 30436 ft 471 kts 10°
2026-05-04 10:42 43.48909 61.15085 30776 ft 470 kts 10°
2026-05-04 10:42 43.52118 61.15944 31102 ft 470 kts 10°
2026-05-04 10:42 43.55324 61.16802 31409 ft 469 kts 10°
2026-05-04 10:42 43.58523 61.17659 31716 ft 468 kts 10°
2026-05-04 10:43 43.61717 61.18516 32017 ft 467 kts 10°
2026-05-04 10:44 43.83919 61.24494 33938 ft 462 kts 10°
2026-05-04 10:45 43.87068 61.25347 34173 ft 461 kts 10°
2026-05-04 10:45 43.90212 61.26199 34396 ft 460 kts 10°
2026-05-04 10:45 43.93358 61.27052 34585 ft 460 kts 10°
2026-05-04 10:45 43.96502 61.27905 34751 ft 461 kts 10°
2026-05-04 10:46 43.99647 61.28760 34959 ft 460 kts 10°
2026-05-04 10:46 44.05954 61.30477 34988 ft 462 kts 10°
2026-05-04 10:47 44.12243 61.32192 34988 ft 459 kts 10°
2026-05-04 10:47 44.18514 61.33524 35062 ft 460 kts
2026-05-04 10:47 44.21695 61.33933 35298 ft 458 kts
2026-05-04 10:49 44.43819 61.36755 35993 ft 456 kts
2026-05-04 10:50 44.50107 61.37623 35978 ft 451 kts
2026-05-04 10:52 44.74790 61.41039 35989 ft 444 kts
2026-05-04 10:52 44.80944 61.41893 35999 ft 445 kts
2026-05-04 10:54 44.99626 61.30747 36006 ft 443 kts 316°
2026-05-04 10:54 45.01912 61.27821 35998 ft 445 kts 317°
2026-05-04 10:56 45.20459 61.04481 35993 ft 445 kts 317°
2026-05-04 10:57 45.25075 60.98648 35993 ft 444 kts 317°
2026-05-04 10:57 45.29671 60.92830 35995 ft 442 kts 317°
2026-05-04 10:58 45.34243 60.87028 35997 ft 440 kts 317°
2026-05-04 10:58 45.38800 60.81236 36000 ft 439 kts 317°
2026-05-04 10:59 45.43345 60.75444 35991 ft 438 kts 317°
2026-05-04 10:59 45.47881 60.69651 35990 ft 438 kts 316°
2026-05-04 11:00 45.52418 60.63842 35989 ft 439 kts 316°
2026-05-04 11:02 45.70634 60.40376 35989 ft 443 kts 316°
2026-05-04 11:05 46.04837 59.95733 35988 ft 441 kts 316°
2026-05-04 11:06 46.09351 59.89785 35992 ft 439 kts 316°
2026-05-04 11:06 46.13858 59.83828 35972 ft 439 kts 316°
2026-05-04 11:10 46.44637 59.40595 35927 ft 442 kts 313°
2026-05-04 11:12 46.62026 59.15348 35923 ft 443 kts 313°
2026-05-04 11:12 46.66377 59.08994 35925 ft 443 kts 313°
2026-05-04 11:13 46.70722 59.02636 35930 ft 443 kts 313°
2026-05-04 11:13 46.75061 58.96266 35915 ft 443 kts 313°
2026-05-04 11:14 46.79394 58.89885 35916 ft 442 kts 313°
2026-05-04 11:16 46.96673 58.64307 35906 ft 442 kts 313°
2026-05-04 11:16 47.00982 58.57885 35905 ft 442 kts 313°
2026-05-04 11:17 47.05291 58.51453 35906 ft 442 kts 313°
2026-05-04 11:19 47.22448 58.25679 35921 ft 442 kts 312°
2026-05-04 11:19 47.26744 58.19185 35914 ft 443 kts 312°
2026-05-04 11:20 47.30314 58.13778 35918 ft 443 kts 312°
2026-05-04 11:20 47.34604 58.07269 35919 ft 443 kts 312°
2026-05-04 11:22 47.51746 57.81128 35914 ft 443 kts 312°
2026-05-04 11:23 47.56019 57.74572 35918 ft 442 kts 311°
2026-05-04 11:25 47.70941 57.51519 35919 ft 442 kts 311°
2026-05-04 11:25 47.75190 57.44899 35915 ft 442 kts 311°
2026-05-04 11:27 47.94223 57.15080 35915 ft 443 kts 311°
2026-05-04 11:28 47.98453 57.08400 35913 ft 443 kts 311°
2026-05-04 11:28 48.02683 57.01704 35923 ft 443 kts 311°
2026-05-04 11:29 48.06910 56.95002 35914 ft 443 kts 311°
2026-05-04 11:29 48.11131 56.88291 35916 ft 443 kts 310°
2026-05-04 11:33 48.40532 56.41053 35915 ft 443 kts 310°
2026-05-04 11:33 48.44719 56.34255 35915 ft 443 kts 310°
2026-05-04 11:34 48.48902 56.27446 35920 ft 443 kts 310°
2026-05-04 11:34 48.53082 56.20626 35915 ft 443 kts 310°
2026-05-04 11:35 48.57228 56.13846 35915 ft 442 kts 310°
2026-05-04 11:35 48.61397 56.07012 35916 ft 442 kts 310°
2026-05-04 11:36 48.65561 56.00170 35922 ft 442 kts 310°
2026-05-04 11:36 48.69721 55.93318 35918 ft 442 kts 310°
2026-05-04 11:37 48.73888 55.86465 35916 ft 442 kts 310°
2026-05-04 11:37 48.78050 55.79603 35908 ft 442 kts 310°
2026-05-04 11:38 48.82211 55.72727 35907 ft 442 kts 310°
2026-05-04 11:38 48.86367 55.65834 35907 ft 443 kts 309°
2026-05-04 11:39 48.90511 55.58919 35907 ft 442 kts 309°
2026-05-04 11:41 49.04942 55.34538 35901 ft 445 kts 310°
2026-05-04 11:41 49.09121 55.27600 35899 ft 445 kts 308°
2026-05-04 11:42 49.13263 55.20558 35901 ft 445 kts 309°
2026-05-04 11:42 49.17411 55.13553 35902 ft 444 kts 309°
2026-05-04 11:43 49.21537 55.06530 35865 ft 446 kts 310°
2026-05-04 11:43 49.25691 54.99536 35910 ft 443 kts 309°
2026-05-04 11:44 49.29764 54.92490 35912 ft 441 kts 308°
2026-05-04 11:44 49.33825 54.85468 35923 ft 440 kts 309°
2026-05-04 11:45 49.37845 54.78544 35934 ft 435 kts 307°
2026-05-04 11:45 49.41831 54.71569 35938 ft 436 kts 309°
2026-05-04 11:46 49.45882 54.64599 35933 ft 439 kts 309°
2026-05-04 11:46 49.49947 54.57564 35935 ft 441 kts 308°
2026-05-04 11:47 49.54023 54.50468 35931 ft 444 kts 308°
2026-05-04 11:47 49.58120 54.43320 35934 ft 446 kts 308°
2026-05-04 11:48 49.62218 54.36139 35937 ft 446 kts 308°
2026-05-04 11:48 49.66316 54.28942 35929 ft 446 kts 308°
2026-05-04 11:49 49.70401 54.21749 35931 ft 445 kts 308°
2026-05-04 11:49 49.74468 54.14569 35933 ft 443 kts 308°
2026-05-04 11:50 49.78518 54.07396 35934 ft 442 kts 308°
2026-05-04 11:50 49.82550 54.00234 35934 ft 440 kts 308°
2026-05-04 11:51 49.86569 53.93083 35935 ft 440 kts 308°
2026-05-04 11:51 49.90574 53.85929 35934 ft 439 kts 308°
2026-05-04 11:52 49.94544 53.78819 35936 ft 438 kts 308°
2026-05-04 11:52 49.98529 53.71664 35936 ft 438 kts 308°
2026-05-04 11:53 50.02510 53.64496 35943 ft 438 kts 308°
2026-05-04 11:53 50.06490 53.57307 35946 ft 439 kts 308°
2026-05-04 11:55 50.22458 53.28266 35945 ft 443 kts 307°
2026-05-04 11:56 50.26458 53.20942 35945 ft 443 kts 307°
2026-05-04 11:56 50.30457 53.13598 35945 ft 444 kts 307°
2026-05-04 11:57 50.34456 53.06232 35950 ft 444 kts 307°
2026-05-04 11:57 50.38448 52.98859 35949 ft 443 kts 307°
2026-05-04 11:58 50.42431 52.91478 35942 ft 443 kts 307°
2026-05-04 11:58 50.46406 52.84096 35943 ft 443 kts 307°
2026-05-04 11:59 50.50345 52.76761 35956 ft 442 kts 307°
2026-05-04 11:59 50.54299 52.69371 35953 ft 441 kts 307°
2026-05-04 12:00 50.58242 52.61983 35955 ft 441 kts 307°
2026-05-04 12:00 50.62174 52.54593 35954 ft 440 kts 307°
2026-05-04 12:01 50.66104 52.47187 35953 ft 440 kts 307°
2026-05-04 12:02 50.79882 52.21283 35962 ft 441 kts 307°
2026-05-04 12:03 50.83824 52.13845 35964 ft 441 kts 307°
2026-05-04 12:03 50.87760 52.06392 35964 ft 442 kts 307°
2026-05-04 12:04 50.91698 51.98911 35963 ft 442 kts 307°
2026-05-04 12:04 50.95638 51.91407 35964 ft 443 kts 307°
2026-05-04 12:05 50.99545 51.83939 35960 ft 443 kts 307°
2026-05-04 12:05 51.03483 51.76398 35965 ft 444 kts 307°
2026-05-04 12:06 51.07423 51.68831 35962 ft 444 kts 306°
2026-05-04 12:06 51.11361 51.61243 35963 ft 445 kts 306°
2026-05-04 12:07 51.15228 51.53563 35955 ft 443 kts 300°
2026-05-04 12:07 51.18263 51.45075 35962 ft 441 kts 296°
2026-05-04 12:08 51.21178 51.36474 35968 ft 441 kts 296°
2026-05-04 12:08 51.24115 51.27881 35957 ft 441 kts 296°
2026-05-04 12:09 51.27072 51.19291 35964 ft 441 kts 296°
2026-05-04 12:09 51.29526 51.12161 35959 ft 441 kts 296°
2026-05-04 12:10 51.32469 51.03583 35966 ft 440 kts 296°
2026-05-04 12:10 51.35401 50.95001 35962 ft 439 kts 296°
2026-05-04 12:11 51.38321 50.86424 35960 ft 439 kts 296°
2026-05-04 12:11 51.41233 50.77839 35964 ft 438 kts 296°
2026-05-04 12:12 51.44134 50.69260 35962 ft 438 kts 296°
2026-05-04 12:12 51.47030 50.60669 35963 ft 438 kts 296°
2026-05-04 12:14 51.57494 50.25328 35963 ft 440 kts 293°
2026-05-04 12:15 51.60055 50.16378 35967 ft 441 kts 293°
2026-05-04 12:15 51.62616 50.07393 35957 ft 443 kts 293°
2026-05-04 12:16 51.65161 49.98431 35954 ft 443 kts 293°
2026-05-04 12:16 51.67716 49.89393 35949 ft 444 kts 293°
2026-05-04 12:17 51.70265 49.80337 35956 ft 444 kts 293°
2026-05-04 12:17 51.72811 49.71260 35952 ft 444 kts 293°
2026-05-04 12:18 51.75347 49.62178 35956 ft 444 kts 293°
2026-05-04 12:18 51.77877 49.53085 35954 ft 444 kts 293°
2026-05-04 12:19 51.80395 49.44004 35964 ft 443 kts 293°
2026-05-04 12:19 51.82902 49.34924 35958 ft 442 kts 293°
2026-05-04 12:20 51.85399 49.25842 35954 ft 441 kts 293°
2026-05-04 12:20 51.87888 49.16768 35959 ft 441 kts 292°
2026-05-04 12:21 51.90359 49.07703 35962 ft 440 kts 293°
2026-05-04 12:21 51.92821 48.98640 35963 ft 439 kts 292°
2026-05-04 12:22 51.95273 48.89587 35965 ft 439 kts 293°
2026-05-04 12:22 51.97717 48.80524 35961 ft 438 kts 292°
2026-05-04 12:23 52.00138 48.71455 35964 ft 438 kts 292°
2026-05-04 12:23 52.02547 48.62372 35960 ft 438 kts 293°
2026-05-04 12:24 52.04934 48.53345 35964 ft 438 kts 293°
2026-05-04 12:24 52.07334 48.44235 35966 ft 439 kts 293°
2026-05-04 12:25 52.09731 48.35096 35966 ft 440 kts 293°
2026-05-04 12:25 52.12129 48.25924 35965 ft 441 kts 293°
2026-05-04 12:26 52.14536 48.16731 35963 ft 442 kts 294°
2026-05-04 12:26 52.17047 48.07581 35970 ft 443 kts 294°
2026-05-04 12:27 52.19574 47.98439 35973 ft 443 kts 294°
2026-05-04 12:27 52.22082 47.89274 35973 ft 442 kts 294°
2026-05-04 12:28 52.24574 47.80101 35968 ft 442 kts 294°
2026-05-04 12:28 52.27057 47.70920 35972 ft 442 kts 294°
2026-05-04 12:29 52.29532 47.61737 35973 ft 442 kts 294°
2026-05-04 12:29 52.31998 47.52554 35972 ft 441 kts 294°
2026-05-04 12:30 52.34457 47.43367 35971 ft 441 kts 294°
2026-05-04 12:30 52.36914 47.34186 35973 ft 441 kts 294°
2026-05-04 12:31 52.39364 47.24993 35968 ft 440 kts 294°
2026-05-04 12:31 52.41803 47.15807 35973 ft 440 kts 293°
2026-05-04 12:32 52.45447 47.02010 35975 ft 440 kts 293°
2026-05-04 12:33 52.47868 46.92801 35972 ft 440 kts 293°
2026-05-04 12:33 52.50279 46.83586 35965 ft 440 kts 293°
2026-05-04 12:34 52.52662 46.74400 35971 ft 440 kts 293°
2026-05-04 12:34 52.55049 46.65136 35974 ft 441 kts 293°
2026-05-04 12:35 52.57431 46.55857 35973 ft 441 kts 293°
2026-05-04 12:35 52.59809 46.46559 35972 ft 441 kts 293°
2026-05-04 12:36 52.62182 46.37252 35974 ft 441 kts 292°
2026-05-04 12:36 52.64435 46.27855 35970 ft 441 kts 290°
2026-05-04 12:37 52.66521 46.18342 35973 ft 442 kts 290°
2026-05-04 12:37 52.68609 46.08818 35965 ft 442 kts 290°
2026-05-04 12:38 52.70715 45.99291 35955 ft 442 kts 290°
2026-05-04 12:38 52.72823 45.89763 35952 ft 442 kts 290°
2026-05-04 12:39 52.74924 45.80229 35953 ft 442 kts 290°
2026-05-04 12:39 52.77011 45.70703 35954 ft 441 kts 290°
2026-05-04 12:40 52.79076 45.61234 35952 ft 441 kts 290°
2026-05-04 12:40 52.81149 45.51693 35957 ft 441 kts 290°
2026-05-04 12:41 52.83205 45.42147 35953 ft 441 kts 290°
2026-05-04 12:41 52.85246 45.32586 35958 ft 441 kts 289°
2026-05-04 12:42 52.87283 45.23005 35956 ft 441 kts 289°
2026-05-04 12:42 52.89311 45.13430 35953 ft 440 kts 289°
2026-05-04 12:43 52.91329 45.03854 35948 ft 440 kts 289°
2026-05-04 12:43 52.93359 44.94287 35942 ft 440 kts 290°
2026-05-04 12:44 52.95495 44.84791 35945 ft 439 kts 291°
2026-05-04 12:44 52.97638 44.75301 35942 ft 439 kts 290°
2026-05-04 12:45 52.99759 44.65790 35946 ft 440 kts 290°
2026-05-04 12:45 53.01868 44.56259 35942 ft 440 kts 290°
2026-05-04 12:46 53.03956 44.46783 35946 ft 440 kts 290°
2026-05-04 12:46 53.06055 44.37221 35949 ft 440 kts 290°
2026-05-04 12:47 53.08147 44.27643 35945 ft 441 kts 290°
2026-05-04 12:47 53.10233 44.18055 35946 ft 441 kts 290°
2026-05-04 12:48 53.12315 44.08445 35943 ft 442 kts 290°
2026-05-04 12:48 53.14392 43.98812 35946 ft 442 kts 290°
2026-05-04 12:49 53.16463 43.89161 35945 ft 442 kts 290°
2026-05-04 12:49 53.18525 43.79503 35943 ft 442 kts 290°
2026-05-04 12:50 53.20576 43.69850 35946 ft 442 kts 290°
2026-05-04 12:50 53.22619 43.60193 35943 ft 441 kts 290°
2026-05-04 12:51 53.24654 43.50531 35944 ft 441 kts 290°
2026-05-04 12:51 53.26680 43.40860 35946 ft 441 kts 289°
2026-05-04 12:52 53.28696 43.31190 35943 ft 441 kts 289°
2026-05-04 12:52 53.30688 43.21589 35946 ft 440 kts 289°
2026-05-04 12:53 53.32684 43.11919 35942 ft 439 kts 289°
2026-05-04 12:53 53.34668 43.02264 35944 ft 439 kts 289°
2026-05-04 12:54 53.36643 42.92606 35946 ft 438 kts 289°
2026-05-04 12:54 53.38611 42.82939 35944 ft 439 kts 289°
2026-05-04 12:55 53.40569 42.73264 35946 ft 439 kts 289°
2026-05-04 12:55 53.42523 42.63570 35943 ft 439 kts 289°
2026-05-04 12:56 53.44466 42.53880 35947 ft 439 kts 289°
2026-05-04 12:56 53.46376 42.44144 35944 ft 439 kts 288°
2026-05-04 12:57 53.48107 42.34309 35945 ft 439 kts 287°
2026-05-04 12:57 53.49799 42.24442 35944 ft 440 kts 287°
2026-05-04 12:58 53.51500 42.14574 35943 ft 440 kts 287°
2026-05-04 12:58 53.53209 42.04700 35946 ft 440 kts 287°
2026-05-04 12:59 53.54914 41.94808 35940 ft 441 kts 287°
2026-05-04 12:59 53.56612 41.84906 35934 ft 441 kts 287°
2026-05-04 13:00 53.58016 41.76672 35935 ft 440 kts 287°
2026-05-04 13:00 53.59699 41.66760 35934 ft 441 kts 287°
2026-05-04 13:01 53.61372 41.56838 35934 ft 440 kts 287°
2026-05-04 13:01 53.63035 41.46917 35933 ft 440 kts 286°
2026-05-04 13:02 53.64690 41.36995 35933 ft 440 kts 286°
2026-05-04 13:02 53.66334 41.27067 35936 ft 439 kts 286°
2026-05-04 13:03 53.67971 41.17142 35934 ft 439 kts 286°
2026-05-04 13:03 53.69600 41.07214 35933 ft 439 kts 286°
2026-05-04 13:04 53.71493 40.97525 35940 ft 438 kts 294°
2026-05-04 13:04 53.73987 40.88141 35933 ft 438 kts 295°
2026-05-04 13:05 53.76494 40.78758 35935 ft 438 kts 295°
2026-05-04 13:05 53.78947 40.69324 35937 ft 438 kts 294°
2026-05-04 13:06 53.81373 40.59857 35935 ft 439 kts 294°
2026-05-04 13:06 53.83797 40.50368 35937 ft 439 kts 294°
2026-05-04 13:07 53.86216 40.40863 35936 ft 440 kts 294°
2026-05-04 13:07 53.88630 40.31338 35935 ft 440 kts 294°
2026-05-04 13:08 53.91045 40.21768 35442 ft 449 kts 294°
2026-05-04 13:08 53.92273 40.16885 34798 ft 450 kts 294°
2026-05-04 13:08 53.93501 40.11996 34067 ft 450 kts 294°
2026-05-04 13:08 53.94727 40.07104 33329 ft 450 kts 294°
2026-05-04 13:09 53.95949 40.02210 32557 ft 451 kts 294°
2026-05-04 13:09 53.97173 39.97303 31755 ft 451 kts 294°
2026-05-04 13:09 53.98397 39.92381 30929 ft 453 kts 294°
2026-05-04 13:09 53.99623 39.87443 30082 ft 454 kts 294°
2026-05-04 13:10 54.00847 39.82496 29198 ft 455 kts 294°
2026-05-04 13:10 54.02076 39.77530 28296 ft 456 kts 294°
2026-05-04 13:10 54.03306 39.72543 27346 ft 458 kts 294°
2026-05-04 13:10 54.04537 39.67539 26341 ft 460 kts 293°
2026-05-04 13:11 54.05772 39.62503 25306 ft 462 kts 293°
2026-05-04 13:11 54.07009 39.57449 24256 ft 464 kts 293°
2026-05-04 13:11 54.08239 39.52412 23521 ft 457 kts 293°
2026-05-04 13:11 54.09453 39.47433 22750 ft 453 kts 293°
2026-05-04 13:12 54.10652 39.42502 22006 ft 448 kts 293°
2026-05-04 13:12 54.11835 39.37625 21259 ft 443 kts 293°
2026-05-04 13:12 54.13003 39.32795 20520 ft 438 kts 293°
2026-05-04 13:12 54.14160 39.28011 19802 ft 434 kts 293°
2026-05-04 13:13 54.15301 39.23280 19043 ft 430 kts 293°
2026-05-04 13:13 54.16430 39.18585 18308 ft 426 kts 292°
2026-05-04 13:13 54.17547 39.13930 17576 ft 422 kts 292°
2026-05-04 13:13 54.18642 39.09360 17307 ft 407 kts 292°
2026-05-04 13:14 54.19693 39.04964 17108 ft 392 kts 292°
2026-05-04 13:14 54.20703 39.00730 16931 ft 378 kts 292°
2026-05-04 13:14 54.21675 38.96646 16770 ft 365 kts 292°
2026-05-04 13:14 54.22646 38.92722 16623 ft 352 kts 298°
2026-05-04 13:15 54.24115 38.89561 16379 ft 342 kts 318°
2026-05-04 13:15 54.26097 38.87261 15933 ft 340 kts 332°
2026-05-04 13:15 54.28198 38.85456 15524 ft 337 kts 334°
2026-05-04 13:15 54.30307 38.83716 15107 ft 335 kts 334°
2026-05-04 13:16 54.32375 38.82012 14685 ft 334 kts 334°
2026-05-04 13:16 54.34488 38.80252 14248 ft 332 kts 334°
2026-05-04 13:16 54.36530 38.78532 13818 ft 331 kts 333°
2026-05-04 13:16 54.38584 38.76788 13422 ft 328 kts 333°
2026-05-04 13:17 54.40623 38.75050 12991 ft 327 kts 333°
2026-05-04 13:17 54.42657 38.73311 12561 ft 326 kts 333°
2026-05-04 13:17 54.44678 38.71580 12143 ft 324 kts 333°
2026-05-04 13:17 54.46688 38.69856 11740 ft 322 kts 333°
2026-05-04 13:18 54.48667 38.68156 11548 ft 313 kts 333°
2026-05-04 13:18 54.50585 38.66505 11377 ft 304 kts 333°
2026-05-04 13:18 54.52445 38.64903 11236 ft 294 kts 333°
2026-05-04 13:18 54.54245 38.63347 11104 ft 285 kts 333°
2026-05-04 13:19 54.55987 38.61828 10987 ft 275 kts 332°
2026-05-04 13:19 54.57661 38.60376 10828 ft 267 kts 333°
2026-05-04 13:19 54.59320 38.58937 10510 ft 267 kts 333°
2026-05-04 13:19 54.60977 38.57507 10222 ft 265 kts 333°
2026-05-04 13:20 54.62622 38.56083 9909 ft 264 kts 333°
2026-05-04 13:20 54.64254 38.54671 9655 ft 261 kts 332°
2026-05-04 13:20 54.65869 38.53272 9363 ft 258 kts 333°
2026-05-04 13:20 54.67468 38.51888 9062 ft 257 kts 333°
2026-05-04 13:21 54.69058 38.50505 8768 ft 255 kts 332°
2026-05-04 13:21 54.70643 38.49115 8455 ft 255 kts 332°
2026-05-04 13:21 54.72223 38.47737 8163 ft 255 kts 332°
2026-05-04 13:21 54.73801 38.46356 7892 ft 253 kts 332°
2026-05-04 13:22 54.75370 38.44998 7621 ft 251 kts 332°
2026-05-04 13:22 54.76925 38.43654 7339 ft 249 kts 332°
2026-05-04 13:22 54.78465 38.42318 7091 ft 247 kts 332°
2026-05-04 13:22 54.79999 38.40990 6855 ft 246 kts 332°
2026-05-04 13:23 54.81510 38.39675 6595 ft 247 kts 332°
2026-05-04 13:23 54.83052 38.38335 6321 ft 249 kts 332°
2026-05-04 13:23 54.84602 38.36985 6065 ft 250 kts 332°
2026-05-04 13:23 54.86136 38.35643 5945 ft 243 kts 332°
2026-05-04 13:24 54.87632 38.34328 5823 ft 239 kts 332°
2026-05-04 13:24 54.89109 38.33025 5701 ft 239 kts 332°
2026-05-04 13:24 54.90595 38.31711 5610 ft 241 kts 332°
2026-05-04 13:25 54.93614 38.29036 5415 ft 245 kts 332°
2026-05-04 13:25 54.95135 38.27692 5294 ft 246 kts 332°
2026-05-04 13:25 54.96661 38.26347 5175 ft 246 kts 332°
2026-05-04 13:25 54.98171 38.25012 5129 ft 240 kts 332°
2026-05-04 13:26 54.99632 38.23716 5053 ft 232 kts 332°
2026-05-04 13:26 55.01057 38.22453 4922 ft 228 kts 332°
2026-05-04 13:26 55.02455 38.21212 4837 ft 224 kts 331°
2026-05-04 13:26 55.03842 38.19979 4708 ft 224 kts 331°
2026-05-04 13:27 55.05248 38.18728 4482 ft 230 kts 332°
2026-05-04 13:27 55.06684 38.17450 4249 ft 233 kts 332°
2026-05-04 13:27 55.08126 38.16164 3986 ft 232 kts 332°
2026-05-04 13:27 55.09562 38.14888 3744 ft 231 kts 332°
2026-05-04 13:28 55.10989 38.13616 3501 ft 230 kts 331°
2026-05-04 13:28 55.12420 38.12386 3241 ft 230 kts 338°
2026-05-04 13:28 55.13974 38.11783 3045 ft 226 kts 351°
2026-05-04 13:28 55.15532 38.11367 3023 ft 225 kts 349°
2026-05-04 13:29 55.17027 38.10923 2999 ft 209 kts 348°
2026-05-04 13:29 55.18394 38.10504 2970 ft 190 kts 348°
2026-05-04 13:29 55.19661 38.10112 2991 ft 184 kts 348°
2026-05-04 13:29 55.20917 38.09719 2985 ft 180 kts 348°
2026-05-04 13:30 55.22116 38.09342 2992 ft 171 kts 347°
2026-05-04 13:30 55.23290 38.08968 2993 ft 173 kts 347°
2026-05-04 13:30 55.24436 38.08350 2968 ft 172 kts 323°
2026-05-04 13:30 55.25388 38.07117 2987 ft 171 kts 324°
2026-05-04 13:31 55.26372 38.05989 3014 ft 170 kts 324°
2026-05-04 13:31 55.27352 38.04852 2981 ft 164 kts 324°
2026-05-04 13:31 55.28270 38.03774 2996 ft 157 kts 324°
2026-05-04 13:31 55.29174 38.02703 2974 ft 157 kts 323°
2026-05-04 13:32 55.30087 38.01651 2758 ft 156 kts 326°
2026-05-04 13:32 55.31000 38.00652 2532 ft 154 kts 326°
2026-05-04 13:32 55.31886 37.99624 2367 ft 152 kts 322°
2026-05-04 13:32 55.32730 37.98528 2172 ft 150 kts 322°
2026-05-04 13:33 55.33583 37.97443 1970 ft 152 kts 325°
2026-05-04 13:33 55.34467 37.96438 1796 ft 151 kts 326°
2026-05-04 13:33 55.35351 37.95419 1518 ft 151 kts 325°
2026-05-04 13:33 55.36179 37.94339 1278 ft 145 kts 322°
2026-05-04 13:34 55.37017 37.93329 1101 ft 147 kts 323°
2026-05-04 13:34 55.37857 37.92303 928 ft 146 kts 323°
2026-05-04 13:34 55.38699 37.91311 744 ft 143 kts 325°
2026-05-04 13:34 55.39515 37.90323 582 ft 143 kts 321°
2026-05-04 13:35 55.40234 37.89466 564 ft 101 kts 326°
2026-05-04 13:35 55.40804 37.88816 575 ft 27 kts 340°
2026-05-04 13:35 55.40955 37.88758 574 ft 0 kts 355°
2026-05-04 13:36 55.40958 37.88758 574 ft 2 kts 355°
2026-05-04 13:36 55.40995 37.88753 577 ft 8 kts 357°
2026-05-04 13:36 55.41045 37.88795 576 ft 8 kts 59°
2026-05-04 13:36 55.41026 37.88878 575 ft 8 kts 142°
2026-05-04 13:37 55.40979 37.88936 579 ft 8 kts 145°
2026-05-04 13:37 55.40934 37.88991 575 ft 8 kts 145°
2026-05-04 13:37 55.40888 37.89046 574 ft 9 kts 147°
2026-05-04 13:37 55.40854 37.89086 572 ft 9 kts 146°
2026-05-04 13:38 55.40796 37.89198 571 ft 10 kts 117°
2026-05-04 13:38 55.40782 37.89313 570 ft 10 kts 85°
2026-05-04 13:38 55.40806 37.89422 569 ft 9 kts 58°
2026-05-04 13:38 55.40827 37.89525 569 ft 9 kts 99°
2026-05-04 13:39 55.40818 37.89635 568 ft 9 kts 74°
2026-05-04 13:39 55.40834 37.89686 568 ft 0 kts 56°
2026-05-04 13:39 55.40845 37.89716 567 ft 7 kts 56°
2026-05-04 13:39 55.40876 37.89797 567 ft 8 kts 56°
2026-05-04 13:40 55.40915 37.89898 571 ft 12 kts 55°
2026-05-04 13:40 55.40966 37.90027 569 ft 13 kts 56°
2026-05-04 13:40 55.41015 37.90155 565 ft 13 kts 56°
2026-05-04 13:40 55.41038 37.90298 565 ft 12 kts 88°
2026-05-04 13:41 55.41066 37.90431 564 ft 12 kts 90°
2026-05-04 13:41 55.41049 37.90572 564 ft 12 kts 84°
2026-05-04 13:41 55.41086 37.90696 565 ft 11 kts 56°
2026-05-04 13:42 55.41185 37.90887 570 ft 11 kts 356°
2026-05-04 13:42 55.41253 37.90905 574 ft 10 kts 34°
2026-05-04 13:42 55.41320 37.90908 576 ft 10 kts 328°
2026-05-04 13:42 55.41367 37.90820 573 ft 10 kts 307°
2026-05-04 13:43 55.41405 37.90730 575 ft 8 kts 307°
2026-05-04 13:43 55.41439 37.90652 575 ft 7 kts 307°
2026-05-04 13:43 55.41477 37.90606 578 ft 7 kts 353°
2026-05-04 13:43 55.41504 37.90633 576 ft 0 kts 36°
2026-05-04 13:44 55.41505 37.90635 576 ft 1 kts 36°
2026-05-04 13:44 55.41510 37.90641 579 ft 0 kts 36°